* Astronomy
Members Login
Username
Password
Login
Remember Me
New Member
Lost Account Info?
Main Page
Search
Search
Advanced Search
Links
Blob on twitter
Chat
Chat Room
Search
Newspaper
Wiki
Help
FAQ
More?
AstroForum
NASA TV
Streaming video by Ustream
NASA TV Audio
NASA Media Channel
ISS Live webcam stream
User Details
Star Map
Calendar
Arcade
Recent Posts
Home
->
Astronomy News
->
Events
->
LongMarch3B R/b Reentry
Start A New Topic
Reply
Post Info
TOPIC: LongMarch3B R/b Reentry
Blobrana
L
Posts: 131433
Date:
Feb 26 12:06 2006
RE: LongMarch3B R/b Reentry
Permalink
Printer Friendly
Updated re-entry time 26th February 2006 @ 06:07 UTC ± 4 hours
(Over the Indian Ocean)
__________________
Blobrana
L
Posts: 131433
Date:
Feb 25 20:05 2006
Permalink
Printer Friendly
Updated re-entry time 26th February 2006 @ 03:03 UTC ± 10 hours
__________________
Blobrana
L
Posts: 131433
Date:
Feb 24 15:23 2006
Permalink
Printer Friendly
A Long March 3B Rocket Body launched on the 12th April 2005 from the Xichang Satellite Launch Centre for the Apstar 6 mission, is predicted to re-enter the Earths atmosphere on the
26th February 2006@ 02:59 UTC ± 15 hours
TLE Data
CZ-3B R/B
1 28639U 05012B 06055.38340224 .28857937 -95071-5 74396-3 0 6556
2 28639 025.4290 116.7174 0855731 264.5031 085.7584 14.53447128 14741
1 28639U 05012B 06055.31501084 .26606626 -94646-5 64007-3 0 6541
2 28639 025.4187 117.0986 0876777 263.5883 088.6266 14.49041662 14734
1 28639U 05012B 06054.82795001 .23704313 -91227-5 76034-3 0 6533
2 28639 025.4441 120.0907 0978796 258.3175 090.6554 14.23267181 14667
1 28639U 05012B 06054.75765282 .23574151 -90991-5 63864-3 0 6521
2 28639 025.4439 120.6114 0998604 257.2569 091.1327 14.19845884 14655
1 28639U 05012B 06054.54603393 .23541229 -35955-4 64305-3 0 6510
2 28639 025.4282 121.8181 1040537 255.2226 093.2944 14.10062677 14627
__________________
Page 1 of 1
sorted by
Oldest First
Newest First
Quick Reply
Please log in to post quick replies.
Home
->
Astronomy News
->
Events
->
LongMarch3B R/b Reentry
Subscribe
Jump To:
--- News ---
Stars/galaxy News
Physics News
Comets
Earthquakes
Meetings
Galaxies
Weather
Stars
Missile
Satellite Re-entry
Neptune
Deimos
Venus
Saturn
Asteroids 2012
Meteors 2012
Meteorites 2012
Plutinos
Meteorites 2014
Comets 2014
Solar 2014
May
Historical Calendar
Comets 2015
October
Comets 2016
Asteroids 2018
Solar 2018
Meteors 2018
UFOs 2018
General news
Asteroids 2017
Meteorites 2017
Comets 2017
Meteors 2017
UFOs 2017
UFOs
Asteroids
Solar
Observatories
Gamma-ray burst
Exhibition
Chemistry
Meteors
Mars
Jupiter
The Moon
Meteorites
Asteroids 2013
Meteorites 2013
Solar 2013
Sun
Solar 2015
Asteroids 2015
September
January
February
Meteorites 2015
March
June
Meteors 2016
Solar 2016
Solar 2017
Comets 2018
Meteorites 2018
Astronomy News
Meteorite News
Mission News
Cosmology News
Events
Solar System
Earth
Exoplanets
Satellites
Supernovae
Space missions
Volcano
Uranus
Mercury
Pluto
UFOs 2012
Phobos
Meteors 2013
UFOs 2013
Comets 2013
Meteors 2014
Asteroids 2014
UFO 2014
Meteors 2015
November
December
UFOs 2015
April
July
August
Meteorites 2016
UFOs 2016
Asteroids 2016
--- Dropzone ---
Computers
Software
Cameras
Observations
Moon 2017
Binoculars
Eyepiece
Moon 2016
App:roved
Telescopes
Moon 2018
--- Media ---
Videos
Art gallery
KMZ
Escape pod
Books
Music
Audio Visual
YouTube
--- Coffee house ---
The Bazaar
All queries go here
Trash
Links
People
Off Topic
--- Agora ---
Blog
Forum help
Banned
Test
Feedback
Create your own FREE Forum
Report Abuse